Location: Mentone
(34.5413°N, 85.5351°W)
Time: 13:58:52
(UTC-05:00)

ADEOS Rocket - Visible Passes

Search period start: 04 July 2015 00:00
Search period end: 14 July 2015 00:00
Orbit: 860 x 1306 km, 98.7° (Epoch: 03 July)

Date Brightness Start Highest point End Pass type
(mag) Time Alt. Az. Time Alt. Az. Time Alt. Az.
05 Jul 5.6 20:46:51 10° SW 20:51:14 18° W 20:55:34 10° NW visible
07 Jul 5.7 20:55:16 10° SW 20:59:10 16° W 21:02:50 10° NW visible
09 Jul 5.9 21:03:56 10° WSW 21:07:07 13° W 21:09:53 10° WNW visible
11 Jul 6.1 21:13:12 10° W 21:15:06 11° W 21:16:23 10° WNW visible
12 Jul 5.2 20:19:29 10° SSW 20:25:15 30° W 20:31:22 10° NW visible
